Flag for Gaza Strip Weather past 2 weeks in Khan Yunis, Gaza Strip

Now
64 °F

Partly sunny.


Feels Like: 64 °F
Forecast: 57 / 71 °F
Wind: 13 mph from West

Location: El Arish

Current Time: Apr 1, 2015 at 11:25:18 AM

Latest Report: Apr 1, 2015 at 10:00 AM


Visibility: N/A

Pressure: 29.98 "Hg

Humidity: 83%

Dew point: 59 °F

Location of Khan YunisLocation

Historic Weather in Khan Yunis — Graph

°F

Khan Yunis temperature yesterday

Maximum temperature yesterday: 75 °F (at 3:00 PM)
Minimum temperature yesterday: 52 °F (at 4:00 AM)
Average temperature yesterday: 64 °F

Past Weeks' High & Low Weather Summary

 TemperatureHumidityPressure
High93 °F (Mar 27, 4:00 PM)100% (Mar 18, 12:00 AM)30.18 "Hg (Mar 18, 12:00 AM)
Low43 °F (Mar 23, 6:00 AM)16% (Mar 27, 4:00 PM)29.65 "Hg (Mar 28, 2:00 AM)
Average62 °F77%29.98 "Hg
* Reported Mar 17 9:00 AM — Apr 1 10:00 AM, Khan Yunis, Weather by CustomWeather, © 2015

Note: Actual official high and low records may vary slightly from our data, if they occured in-between our weather recording intervals... More about our weather records

Advertising

Khan Yunis weather history for previous 24 hours

 ConditionsComfort  
Time TempWeatherWind HumidityBarometerVisibility
10:00 AM
Wed, Apr 1
64 °FPartly sunny.13 mph83%29.98 "HgN/A
9:00 AM61 °FBroken clouds.10 mph94%29.95 "HgN/A
8:00 AM59 °FBroken clouds.12 mph100%29.92 "HgN/A
7:00 AM59 °FBroken clouds.9 mph94%29.80 "HgN/A
5:00 AM57 °FClear.9 mph88%29.86 "Hg10 mi
4:00 AM59 °FClear.6 mph88%29.86 "Hg10 mi
3:00 AM61 °FClear.9 mph83%29.86 "Hg10 mi
2:00 AM61 °FPassing clouds.8 mph88%29.89 "HgN/A
1:00 AM61 °FPassing clouds.9 mph88%29.89 "HgN/A
12:00 AM66 °FPassing clouds.7 mph56%29.89 "HgN/A
11:00 PM
Tue, Mar 31
64 °FPassing clouds.5 mph68%29.89 "HgN/A
10:00 PM66 °FPassing clouds.No wind56%29.86 "HgN/A
9:00 PM66 °FPassing clouds.7 mph56%29.86 "HgN/A
8:00 PM66 °FPassing clouds.5 mph52%29.83 "HgN/A
7:00 PM70 °FScattered clouds.5 mph38%29.83 "HgN/A
6:00 PM72 °FPassing clouds.8 mph38%29.83 "HgN/A
5:00 PM73 °FPassing clouds.9 mph33%29.86 "HgN/A
4:00 PM75 °FSunny.9 mph36%29.89 "Hg10 mi
3:00 PM75 °FSunny.8 mph34%29.92 "Hg10 mi
2:00 PM73 °FSunny.8 mph36%29.95 "Hg10 mi
1:00 PM73 °FPassing clouds.3 mph36%29.98 "HgN/A
12:00 PM72 °FPassing clouds.7 mph38%30.01 "HgN/A
11:00 AM70 °FSunny.5 mph43%30.01 "Hg10 mi
Weather by CustomWeather, © 2015

See weather overviewHow to use our weather pages